TITAN 3C TRANSTAGE DEB, 34168

Orbit data source: Space-Track

TITAN 3C TRANSTAGE DEB, 34168 is space debris in HEO originally from a launch on Tue, 21 Dec 1965 UTC launched from the Air Force Eastern Test Range (AFETR). Debris objects in space refer to the collection of defunct objects orbiting the Earth. Examples of debris include non-operational satellites, rocket bodies, and fragments generated from explosions, collisions, or faulty payload assembly.

Loading next visibility...
Identifier
34168, 1965-108DB
Orbit
HEO
Country
Flag of USUS
Related business
Manufacturer
Unknown
Mission
Spacecraft
Bus & Motor
Unknown
Mass
Unknown
Launch date (UTC)
1965-12-21 (60 years ago)
Launch vehicle
Unknown
Launch site
Air Force Eastern Test Range (AFETR)
Object type
Payload
Rocket body
Debris
Shape & HBR
Unknown shape, 1.1 m
Radar Cross Section
Small (<0.1 m²)

Expand to show TLE details & history
Last TLE update: 7 months ago

TLE from 7 months ago
0 TITAN 3C TRANSTAGE DEB
1 34168U 65108DB  25228.25264567 -.00000002  00000-0  00000-0 0  9991
2 34168  27.9156  63.1025 6642245 177.9141 358.2219  2.63602604190975
Epoch: 2025-08-16T06:03Z
TLE epoch observation values (Epoch: 2025-08-16T06:03:48.585Z)
Latitude
6.55409°
Longitude
174.81078°
Altitude
1,135.113 km
Speed
9.386 km/s
True Right ascension
15h 22m 36s
True Declination
6° 31' 02"
Sunlit
Object was in daylight at epoch
Visualization orbit readout
Latitude
Unknown
Longitude
Unknown
Altitude
Unknown
Speed
Unknown
Apparent Right ascension
Unknown
Apparent Declination
Unknown
Sunlit
N/A
Visualization observer readout
Local Sidereal Time
02:56:16
Azimuth
Unknown
Elevation
Unknown
Doppler factor
Unknown
Orbital elements
Apogee altitude
30,466.726 km
Perigee altitude
1,055.717 km
Semi-major axis
22,139.359 km
Eccentricity
0.66422
Inclination
27.9156°
RAAN
63.1025°
Arg. of periapsis
177.9141°
True anomaly
348.27634°
Mean anomaly
358.2219°
Eccentric anomaly
354.71928°
Mean motion
0.65886 °/min
Orbital period
546.4 mins
BSTAR
0
Loading maneuver chart data...
Computing Atmospheric mass density...

Documentation

Showing up to 5 results
|